Regional Weather Roundup
Issued by NWS

Home | Current Version | Previous Version | Text Only | Print | Product List | Glossary On
Versions: 1 2 3 4 5 6 7 8 9 10 11 12 13 14 15 16 17 18 19 20 21 22 23 24 25 26 27
000
ASUS45 KBOU 060007
RWRCO

WEATHER ROUNDUP FOR COLORADO
NATIONAL WEATHER SERVICE DENVER/BOULDER CO
600 PM MDT THU MAY 05 2016

NOTE: "FAIR" INDICATES FEW OR NO CLOUDS BELOW 12000 FEET WITH NO
SIGNIFICANT WEATHER AND/OR OBSTRUCTIONS TO VISIBILITY.

COZ001>005-013-030-031-060100-
...NORTHWEST COLORADO...

CITY           SKY/WX    TMP DP  RH WIND       PRES   REMARKS
CRAIG          FAIR      76  27  16 NE7       30.01F
HAYDEN         FAIR      72  30  21 N6        30.04F
MEEKER         FAIR      75  26  16 E7        30.00F
MOUNT WERNER   NOT AVBL
STEAMBOAT SPGS FAIR      73  26  17 CALM      30.06F
WALDEN         PTSUNNY   64  18  16 CALM      30.18F
$$

COZ006>008-011-060100-
...WEST CENTRAL VALLEYS...

CITY           SKY/WX    TMP DP  RH WIND       PRES   REMARKS
GRAND JUNCTION FAIR      82  26  13 SE15      29.87F
MONTROSE       FAIR      79  25  13 VRB3      29.97F
EAGLE          SUNNY     75  21  13 E5        30.04F
RIFLE          FAIR      79  27  14 W6        29.94F
DELTA          NOT AVBL
NUCLA          NOT AVBL
$$

COZ017>023-064>068-060100-
...SOUTHWEST COLORADO...

CITY           SKY/WX    TMP DP  RH WIND       PRES   REMARKS
DURANGO        FAIR      72  25  17 E10G20    30.04F
CORTEZ         FAIR      78  27  15 SE12G25   29.96F
PAGOSA SPRINGS FAIR      70  16  12 SE5       30.15F
TELLURIDE      FAIR      63  20  18 S9G22     30.22S
WOLF CREEK PAS PTSUNNY   43  23  45 SW7       30.44F
$$

COZ009-010-012-014-032>034-037-058>063-060100-
...CENTRAL COLORADO...

CITY           SKY/WX    TMP DP  RH WIND       PRES   REMARKS
ASPEN          FAIR      71  21  15 SW8       30.09F
BUENA VISTA    FAIR      68  18  15 S6        30.15F
COPPER MTN     NOT AVBL
BERTHOUD PASS  FAIR      37  30  75 NE9       30.45F
COTTONWOOD PAS PTSUNNY   63  10  13 SE8G17    30.29S
GUNNISON       FAIR      70  25  18 E7        30.12F
KREMMLING      FAIR      72  10   9 CALM      30.11F
LEADVILLE      PTSUNNY   58  17  20 VRB7      30.25F
MONARCH PASS   CLOUDY    45  19  36 E10       30.52F
SALIDA         FAIR      74  15  10 SE10      30.19F
SUNLIGHT       CLOUDY    59  18  20 CALM      30.34F
WILKERSON PASS FAIR      54  19  26 S3        30.40F
$$

COZ069>075-060100-
...SAN LUIS VALLEY/SANGRE DE CRISTO MOUNTAINS...

CITY           SKY/WX    TMP DP  RH WIND       PRES   REMARKS
ALAMOSA        FAIR      71  21  15 S8        30.13F
LA VETA PASS   CLOUDY    52  27  37 NE10      30.33F
SAGUACHE       FAIR      70  23  17 S12       30.16F
$$

COZ035-036-038>040-060100-
...NORTHERN COLORADO FRONT RANGE...

CITY           SKY/WX    TMP DP  RH WIND       PRES   REMARKS
DENVER INTL AP PTSUNNY   75  37  25 SE10      30.01F
DMNS CITY PARK   N/A     76  29  18 E13G18    30.00S
AURORA         FAIR      76  34  21 E13       30.04F
FRONT RANGE AP PTSUNNY   73  37  27 E7        30.03F
ERIE MUNI ARPT FAIR      78  30  17 E7        29.99F
BOULDER MUN AP FAIR      77  36  22 E5        30.00S
CENTENNIAL     PTSUNNY   75  31  19 E15G24    30.04F
BROOMFIELD     PTSUNNY   77  34  20 E10       30.03F
FORT COLLINS   FAIR      75  37  25 E8        29.98S
LONGMONT       FAIR      78  36  21 E9        30.01S
$$

COZ041-046-047-076>085-087-088-060100-
...PIKES PEAK/PALMER DIVIDE AND SOUTHERN FOOTHILLS...

CITY           SKY/WX    TMP DP  RH WIND       PRES   REMARKS
COLO. SPRINGS  FAIR      76  25  15 S13       30.08S
A. F. ACADEMY  PTSUNNY   72  27  18 S14       30.08S
SCHRIEVER AFB  NOT AVBL
ELLICOTT       FAIR     N/A N/A N/A SE13G22   30.07F
FALCON         NOT AVBL
FORT CARSON    FAIR      74  32  21 S17       30.04F
LIMON          FAIR      74  35  24 SE17      30.05F
MONUMENT HILL  FAIR      68  32  26 SE15      30.14F
TRINIDAD       FAIR      79  26  14 E13       30.03F
$$

COZ042>045-048>051-090-091-060100-
...NORTHEAST COLORADO...

CITY           SKY/WX    TMP DP  RH WIND       PRES   REMARKS
GREELEY ARPT   FAIR      77  39  25 SE8       29.99F
AKRON          FAIR      77  34  21 S13       30.00F
BURLINGTON     FAIR      78  35  21 SE20      30.02F
WRAY           NOT AVBL
STERLING       FAIR      81  43  26 SE10      29.95S
HOLYOKE        NOT AVBL
FORT MORGAN    FAIR      81  28  14 SE5       29.98F
$$

COZ086-089-092>099-060100-
...SOUTHEAST COLORADO...

CITY           SKY/WX    TMP DP  RH WIND       PRES   REMARKS
PUEBLO         FAIR      83  31  15 SE13      29.97F
LA JUNTA       FAIR      83  36  18 E10       29.97F
LAMAR          FAIR      83  38  20 SE14      29.96S
SPRINGFIELD      N/A     79  36  21 S13       30.00S
$$




USA.gov is the U.S. government's official web portal to all federal, state and local government web resources and services.